Regional Weather Roundup
Issued by NWS Goodland, KS

Home | Current Version | Previous Version | Graphics & Text | Print | Product List | Glossary On
Versions: 1 2 3 4 5 6 7 8 9 10 11 12 13 14 15 16 17 18 19 20 21 22 23 24 25 26 27 28 29 30 31 32 33 34 35 36 37 38 39 40 41 42 43 44 45 46 47 48 49 50
000
ASUS43 KGLD 231908
RWRGLD

GOODLAND FORECAST AREA HOURLY WEATHER ROUNDUP
NATIONAL WEATHER SERVICE GOODLAND KS
100 PM MDT WED MAY 23 2018

...OFFICIAL OBSERVATIONS...

CITY           SKY/WX    TMP DP  RH WIND       PRES   REMARKS
GOODLAND KS    PTSUNNY   81  53  37 S15G31    29.98F
HILL CITY KS   CLOUDY    83  61  47 S15G30    29.99S
IMPERIAL NEB   PTSUNNY   84  52  33 SW21G29   29.96F
MCCOOK NEB     CLOUDY    81  59  47 S13G23    29.97S
AKRON CO       MOSUNNY   76  53  44 S10       29.99F
BURLINGTON CO  PTSUNNY   82  54  37 S22G35    30.00F
LIMON CO       SUNNY     78  44  29 S22G35    30.02F
$$

...UNOFFICIAL OBSERVATIONS...

CITY           SKY/WX    TMP DP  RH WIND       PRES   REMARKS
COLBY KS       PTSUNNY   86  55  35 S16G22    30.00F
NORTON KS      SUNNY     90  54  29 S20       29.98
SHARON SPRINGS   N/A     83  55  37 MISG        N/A
TRIBUNE KS     CLOUDY    84  55  37 S24G32    30.03
KIT CARSON CO    N/A     83  53  35 MISG        N/A
YUMA CO        FAIR      79  18  10 SW14G21   29.97F
$$



USA.gov is the U.S. government's official web portal to all federal, state and local government web resources and services.